Weather History for KMMV - November, 2012

Change the Weather History Date:

Thursday, November 22, 2012

  Actual Average Record
Temperature  
Mean Temperature 41 °F 44 °F  
Max Temperature 49 °F 50 °F 63 °F (1936)
Min Temperature 32 °F 38 °F 21 °F (1900)
Degree Days  
Heating Degree Days 24 21  
Month to date heating degree days 355 421  
Since 1 July heating degree days 783 1044  
Cooling Degree Days 0 0  
Month to date cooling degree days 0 0  
Year to date cooling degree days 300 215  
Moisture  
Dew Point 35 °F    
Average Humidity 83    
Maximum Humidity 100    
Minimum Humidity 66    
Precipitation  
Precipitation 0.00 in 0.23 in 2.42 in (1909)
Month to date precipitation 4.74 4.61  
Year to date precipitation 39.22 31.47  
Snow  
Snow 0.00 in - - ()
Month to date snowfall 0.0  
Snow Depth 0.00 in    
Sea Level Pressure  
Sea Level Pressure 30.34 in    
Wind  
Wind Speed 1 mph (North)    
Max Wind Speed 6 mph    
Max Gust Speed 7 mph    
Visibility 4 miles    
Events Fog    
T = Trace of Precipitation, MM = Missing Value Source: NWS Daily Summary

Daily Weather History Graph

Daily Weather History Graph

Search for Another Location

Airport or City:

Trip Planner

Search our weather history database for the weather conditions in past years. The results will help you decide how hot, cold, wet, or windy it might be!

Date:

Astronomy

Nov. 22, 2012 Rise Set
Actual Time 7:20 AM PST 4:36 PM PST
Civil Twilight 6:48 AM PST 5:09 PM PST
Nautical Twilight 6:12 AM PST 5:45 PM PST
Astronomical Twilight 5:36 AM PST 6:20 PM PST
Moon 1:37 PM PST (11/22) 1:32 AM PST (11/22)
Length of Visible Light 10h 20m
Length of Day
9h 15m
Waxing Gibbous, 72% of the Moon is Illuminated
Nov 22
Waxing Gibbous
Nov 28
Full
Dec 6
Last Quarter
Dec 13
New
Dec 19
First Quarter

Hourly Weather History & Observations

Time (PST) Temp. Windchill Dew Point Humidity Pressure Visibility Wind Dir Wind Speed Gust Speed Precip Events Conditions
12:09 AM 35.6 °F 32.8 °F 33.8 °F 93% 30.35 in 7.0 mi NNW 3.5 mph - N/A   Clear
12:53 AM 34.0 °F 29.8 °F 32.0 °F 92% 30.35 in 1.5 mi North 4.6 mph - N/A   Clear
1:03 AM 33.8 °F 29.6 °F 32.0 °F 93% 30.35 in 3.0 mi North 4.6 mph - N/A   Clear
1:29 AM 33.8 °F - 30.2 °F 87% 30.35 in 1.8 mi Calm Calm - N/A   Clear
1:39 AM 33.8 °F - 32.0 °F 93% 30.34 in 0.8 mi Calm Calm - N/A   Scattered Clouds
1:48 AM 33.8 °F - 30.2 °F 87% 30.34 in 0.5 mi Calm Calm - N/A Fog Fog
1:53 AM 33.1 °F - 30.9 °F 92% 30.35 in 0.5 mi Calm Calm - N/A Fog Fog
2:01 AM 32.0 °F - 30.2 °F 93% 30.35 in 0.5 mi Calm Calm - N/A Fog Fog
2:09 AM 33.8 °F - 32.0 °F 93% 30.35 in 2.0 mi Calm Calm - N/A   Overcast
2:22 AM 33.8 °F - 32.0 °F 93% 30.36 in 0.8 mi Calm Calm - N/A   Mist
2:36 AM 35.6 °F - 33.8 °F 93% 30.36 in 0.2 mi Calm Calm - N/A Fog Fog
2:53 AM 34.0 °F - 32.0 °F 92% 30.36 in 0.2 mi Calm Calm - N/A Fog Fog
2:56 AM 33.8 °F - 32.0 °F 93% 30.36 in 0.5 mi Calm Calm - N/A Fog Fog
3:23 AM 33.8 °F - 32.0 °F 93% 30.36 in 1.0 mi Calm Calm - N/A   Overcast
3:31 AM 33.8 °F - 32.0 °F 93% 30.36 in 0.8 mi Calm Calm - N/A   Mist
3:38 AM 33.8 °F - 32.0 °F 93% 30.36 in 0.5 mi Calm Calm - N/A Fog Fog
3:51 AM 33.8 °F - 33.8 °F 100% 30.36 in 0.5 mi Calm Calm - N/A Fog Fog
3:53 AM 34.0 °F - 33.1 °F 96% 30.36 in 0.5 mi Calm Calm - N/A Fog Fog
4:17 AM 33.8 °F - 33.8 °F 100% 30.36 in 1.0 mi Calm Calm - N/A   Mist
4:35 AM 33.8 °F - 33.8 °F 100% 30.36 in 0.8 mi Calm Calm - N/A   Mist
4:53 AM 34.0 °F - 32.0 °F 92% 30.36 in 0.5 mi Calm Calm - N/A Fog Fog
5:04 AM 33.8 °F - 33.8 °F 100% 30.36 in 0.5 mi Calm Calm - N/A Fog Fog
5:20 AM 33.8 °F - 32.0 °F 93% 30.35 in 0.5 mi Calm Calm - N/A Fog Fog
5:30 AM 33.8 °F - 32.0 °F 93% 30.36 in 0.2 mi Calm Calm - N/A Fog Fog
5:38 AM 35.6 °F - 33.8 °F 93% 30.36 in 0.5 mi Calm Calm - N/A Fog Fog
5:53 AM 36.0 °F 32.1 °F 34.0 °F 93% 30.36 in 0.5 mi NNW 4.6 mph - N/A Fog Fog
6:20 AM 37.4 °F 34.9 °F 35.6 °F 93% 30.36 in 1.0 mi North 3.5 mph - N/A   Overcast
6:30 AM 37.4 °F 34.9 °F 35.6 °F 93% 30.36 in 3.0 mi NNW 3.5 mph - N/A   Overcast
6:48 AM 37.4 °F - 35.6 °F 93% 30.36 in 6.0 mi Calm Calm - N/A   Mostly Cloudy
6:53 AM 37.9 °F 35.5 °F 36.0 °F 93% 30.37 in 7.0 mi WNW 3.5 mph - N/A   Mostly Cloudy
7:19 AM 37.4 °F 32.8 °F 35.6 °F 93% 30.36 in 3.0 mi North 5.8 mph - N/A   Mostly Cloudy
7:23 AM 37.4 °F 33.8 °F 35.6 °F 93% 30.36 in 1.8 mi NNW 4.6 mph - N/A   Mostly Cloudy
7:51 AM 37.4 °F 34.9 °F 37.4 °F 100% 30.34 in 3.0 mi NE 3.5 mph - N/A   Overcast
7:53 AM 37.9 °F 35.5 °F 37.0 °F 97% 30.34 in 3.0 mi NE 3.5 mph - N/A   Overcast
8:13 AM 37.4 °F 34.9 °F 37.4 °F 100% 30.37 in 7.0 mi WNW 3.5 mph - N/A   Partly Cloudy
8:53 AM 39.9 °F 37.8 °F 37.9 °F 93% 30.37 in 7.0 mi North 3.5 mph - N/A   Mostly Cloudy
9:53 AM 42.1 °F 40.2 °F 39.9 °F 92% 30.36 in 10.0 mi North 3.5 mph - N/A   Mostly Cloudy
10:35 AM 44.6 °F - 39.2 °F 81% 30.36 in 10.0 mi Calm Calm - N/A   Mostly Cloudy
10:53 AM 45.0 °F - 39.9 °F 82% 30.35 in 10.0 mi Calm Calm - N/A   Partly Cloudy
11:53 AM 46.0 °F - 39.0 °F 76% 30.34 in 10.0 mi Calm Calm - N/A   Clear
12:53 PM 46.9 °F - 37.9 °F 71% 30.32 in 10.0 mi Calm Calm - N/A   Clear
1:53 PM 48.0 °F - 37.9 °F 68% 30.32 in 10.0 mi Calm Calm - N/A   Clear
2:53 PM 48.0 °F - 37.9 °F 68% 30.31 in 10.0 mi Calm Calm - N/A   Clear
3:53 PM 46.9 °F - 39.0 °F 74% 30.31 in 10.0 mi Calm Calm - N/A   Clear
4:53 PM 45.0 °F - 39.0 °F 80% 30.31 in 10.0 mi Calm Calm - N/A   Clear
5:53 PM 43.0 °F - 39.9 °F 89% 30.30 in 10.0 mi Calm Calm - N/A   Clear
6:53 PM 44.1 °F - 39.9 °F 85% 30.29 in 10.0 mi Calm Calm - N/A   Clear
7:53 PM 43.0 °F - 39.9 °F 89% 30.28 in 10.0 mi Calm Calm - N/A   Clear
8:53 PM 42.1 °F - 39.0 °F 89% 30.28 in 10.0 mi Calm Calm - N/A   Clear
9:53 PM 41.0 °F - 37.9 °F 89% 30.29 in 8.0 mi Calm Calm - N/A   Clear
10:53 PM 39.0 °F - 37.0 °F 93% 30.28 in 10.0 mi Calm Calm - N/A   Clear
11:05 PM 39.2 °F - 37.4 °F 93% 30.28 in 1.8 mi Calm Calm - N/A   Clear
11:13 PM 39.2 °F - 37.4 °F 93% 30.28 in 0.8 mi Calm Calm - N/A   Mist
11:27 PM 39.2 °F - 35.6 °F 87% 30.28 in 1.2 mi Calm Calm - N/A   Scattered Clouds
11:43 PM 37.4 °F - 35.6 °F 93% 30.28 in 0.8 mi Calm Calm - N/A   Mist
11:53 PM 37.9 °F - 36.0 °F 93% 30.28 in 0.5 mi Calm Calm - N/A Fog Fog